Vorticity
5 5 5 6 6 6 6 6 6 6 5 5 6 6 6 6 6 6 6 4 3 3 4 6 4 4 4 7 10 11 8 10 16 15 7 4 3 5 7 6 10 12 11 8 5 4 3 5 4 3 6 5 9 7 2 4 1 1 4 6 3 0 4 2 4 3 -2 5 5 6 9 6 7 9 9 7 6 6 7 5 4 7 6 7 6 6 6 4
6 6 6 6 7 6 6 6 6 6 6 6 5 5 5 6 6 6 6 6 4 3 4 5 6 4 4 5 7 10 10 9 11 17 19 12 1 2 7 5 5 9 9 7 5 5 5 5 3 3 4 5 6 2 -1 -0 1 3 3 7 -1 -5 5 2 3 7 1 1 3 6 8 5 6 9 10 8 9 9 7 5 5 6 7 7 6 6 7 5
7 7 7 7 7 7 8 7 7 7 6 7 7 6 5 5 5 6 6 6 5 5 5 5 6 6 5 4 4 6 9 10 9 12 20 18 6 1 5 6 4 7 9 6 6 6 6 5 3 3 2 4 5 3 -0 -2 2 2 1 6 -3 2 17 5 -2 4 3 -0 0 5 6 8 6 5 9 8 8 10 8 7 6 6 7 7 8 7 6 6
7 7 8 8 8 9 9 9 8 8 7 7 7 7 6 5 5 5 5 5 5 6 6 7 6 6 7 5 4 4 5 8 10 9 12 17 16 8 3 4 3 4 7 7 9 9 7 6 5 4 3 4 5 5 4 1 3 -0 4 4 -17 -7 15 7 0 2 4 2 1 4 5 9 8 4 7 7 8 9 9 8 8 6 5 6 7 7 5 7
6 7 7 7 8 8 8 9 9 9 9 8 8 7 7 7 5 5 5 5 5 6 6 7 7 6 7 7 6 4 3 4 9 10 10 12 18 17 7 2 1 2 5 6 10 12 10 9 7 5 6 7 5 7 7 3 3 -0 4 5 -11 -7 5 5 4 -0 3 6 4 3 4 9 9 9 9 6 7 8 9 9 10 9 6 6 5 6 6 5
6 6 6 6 6 6 7 7 8 9 10 10 9 8 8 8 7 6 5 5 6 6 6 6 7 7 6 7 7 6 4 3 6 8 10 11 13 18 16 8 2 0 3 6 8 11 13 12 10 8 7 7 7 10 9 4 4 4 1 3 5 1 -3 3 5 -1 2 5 5 3 3 8 9 11 10 5 5 5 7 9 11 11 9 10 6 5 7 6
6 6 6 5 5 5 6 6 7 7 8 10 10 10 9 8 8 8 6 6 5 5 6 6 6 6 7 6 6 7 6 5 6 4 7 12 11 13 17 15 8 2 2 4 6 9 11 11 11 11 8 7 9 9 7 6 5 5 3 2 7 4 -3 2 5 3 5 3 6 5 3 6 7 10 10 7 7 3 4 5 7 11 11 11 7 4 6 7
5 5 5 4 4 4 5 6 6 6 6 7 8 9 10 10 10 9 8 7 6 6 6 5 4 4 6 6 5 7 8 6 6 3 3 9 12 11 13 17 15 7 3 2 4 8 9 10 11 11 9 8 11 9 5 7 6 5 4 2 4 7 7 7 5 6 8 5 6 7 5 6 7 10 10 10 10 3 2 4 4 7 10 9 5 5 5 5
6 5 5 4 4 4 4 4 4 5 6 6 6 7 8 9 10 10 11 10 8 7 6 5 5 3 4 6 5 5 7 7 8 6 2 3 8 11 11 14 18 14 7 3 4 6 7 9 9 10 10 7 9 10 7 7 6 6 5 4 4 6 8 8 8 8 8 7 7 8 6 6 8 11 9 9 11 7 6 10 8 4 7 8 7 7 7 5
7 7 6 6 4 4 3 3 3 4 5 5 5 5 6 6 8 10 11 12 11 9 7 6 5 4 3 4 6 5 5 7 10 9 5 3 4 7 10 11 16 18 13 6 3 3 4 6 6 7 8 7 8 8 9 9 6 5 6 6 6 7 8 8 8 8 8 6 5 7 7 6 9 9 4 6 10 9 8 10 8 5 7 8 8 10 9 6
6 6 7 7 6 6 4 4 3 3 3 4 4 4 5 5 6 7 8 11 12 11 10 8 7 5 4 3 4 7 6 5 10 11 7 5 4 3 7 10 12 16 18 13 6 3 3 5 6 6 6 6 8 8 9 10 4 2 6 7 7 9 8 7 8 8 7 4 3 7 9 7 8 8 4 5 9 8 7 7 7 10 11 10 10 10 11 7
4 5 5 6 6 7 7 6 4 4 3 2 3 3 4 4 4 5 6 8 10 12 12 11 10 7 6 4 4 6 5 3 8 11 8 5 4 4 4 8 10 11 16 17 12 6 2 3 4 6 8 6 7 7 8 9 4 2 3 4 7 9 6 7 10 7 4 1 3 9 9 6 6 8 7 3 7 8 6 5 6 11 9 9 12 10 11 10
4 4 4 4 5 6 7 7 6 6 5 3 2 2 2 3 3 4 4 5 6 9 11 12 12 10 9 7 4 3 2 2 4 6 9 6 4 5 3 4 7 8 12 16 17 13 6 2 2 6 8 7 6 4 8 10 4 3 5 3 5 8 7 9 9 4 2 1 4 9 6 8 9 7 8 6 7 9 6 6 5 6 8 7 11 11 12 12
6 6 5 4 4 5 5 6 7 7 7 6 4 2 2 1 2 3 3 4 4 5 8 10 12 12 12 9 5 4 3 4 4 4 7 6 3 4 5 4 4 6 7 10 15 16 14 8 3 5 5 8 7 2 10 12 4 5 6 3 4 8 8 8 8 2 4 3 4 10 3 6 13 7 10 9 7 7 3 8 7 4 9 9 10 11 12 15
9 8 7 7 6 6 5 5 5 6 6 7 7 5 4 2 1 2 2 3 4 4 4 6 9 12 12 11 9 7 6 4 4 5 6 6 5 5 5 6 5 5 6 7 11 15 20 16 9 6 3 9 7 1 12 14 8 11 7 2 4 11 10 6 10 5 3 7 6 8 0 2 12 7 9 9 5 7 4 5 7 7 9 8 11 13 12 16
11 11 10 9 8 8 8 7 6 5 5 6 7 7 7 6 3 2 2 2 3 3 3 4 5 8 10 12 13 11 9 6 4 4 5 5 5 5 7 8 7 5 5 6 9 12 18 20 15 9 5 8 3 0 13 11 7 12 10 7 4 11 10 2 15 13 -0 6 8 5 1 0 7 4 6 10 4 3 5 5 6 7 5 4 9 12 12 14
13 13 12 11 10 9 10 10 8 7 6 5 5 6 7 7 7 5 3 1 2 2 3 4 3 5 8 9 10 11 11 9 6 4 5 5 4 5 6 9 8 5 5 6 7 8 12 17 18 13 7 8 3 3 9 5 7 11 8 11 6 10 12 -0 15 24 2 -2 5 4 0 -2 4 5 2 7 9 3 4 6 5 5 3 5 7 7 10 14
12 13 13 13 12 11 11 12 11 10 10 8 6 5 5 6 7 7 6 4 3 2 3 4 4 4 4 6 7 10 12 10 9 8 5 5 5 4 4 8 8 4 5 6 6 5 7 13 17 17 13 10 7 5 6 3 9 9 3 10 7 7 13 -3 -0 20 11 -3 1 5 3 -0 1 5 8 9 9 6 5 4 6 7 6 9 11 7 11 15
9 11 11 12 13 11 11 12 12 12 12 12 10 8 6 6 5 6 7 7 5 3 3 3 4 5 3 6 6 6 10 11 11 10 7 6 5 4 3 6 7 6 7 7 7 6 6 9 11 15 19 17 12 7 7 6 8 6 1 7 9 3 8 2 -2 16 22 4 -4 0 0 4 2 -4 5 12 8 7 4 3 7 6 7 11 11 6 8 13
6 7 8 9 11 10 10 11 12 12 13 14 14 12 10 8 7 6 5 7 7 6 6 3 2 4 4 5 4 3 6 9 10 9 9 7 5 4 4 4 5 5 7 7 7 7 6 6 8 11 15 19 17 11 9 8 7 7 3 6 11 6 -0 -0 2 10 19 11 0 2 -3 2 13 1 -1 6 5 6 1 3 8 4 7 12 5 2 4 8
5 4 4 5 7 8 9 9 10 11 11 12 13 15 15 13 11 9 7 6 7 7 7 7 3 2 5 5 5 6 4 4 8 9 9 10 7 6 4 4 5 3 4 6 5 7 7 5 7 11 13 16 17 13 11 9 8 6 6 8 9 11 5 2 6 -1 1 12 6 1 -2 -1 11 12 12 14 9 8 4 5 8 4 8 10 3 2 2 4
5 5 4 4 3 5 6 6 8 9 10 11 11 11 13 15 16 14 11 6 7 9 5 7 7 3 4 5 5 8 5 1 5 7 8 10 10 9 7 5 4 2 3 4 3 5 9 6 6 10 12 12 14 14 12 10 10 7 7 10 7 11 14 8 14 10 7 26 21 -2 -5 -4 -1 0 0 2 2 5 5 5 5 5 9 7 4 5 1 5
7 7 7 6 5 4 4 4 4 4 7 9 9 10 10 11 14 17 18 11 7 11 9 5 7 6 4 6 4 5 6 3 3 5 7 9 10 10 9 6 6 6 4 4 4 5 8 7 7 10 11 10 11 12 13 10 9 9 7 12 7 6 14 4 4 11 4 13 19 5 0 -1 -1 7 5 -2 4 7 2 2 3 3 7 6 4 5 3 7
7 8 8 8 8 8 6 5 5 3 4 5 5 7 8 8 10 13 19 19 9 9 15 10 5 6 6 8 6 2 6 6 4 4 3 5 8 10 10 7 7 8 5 4 5 6 6 5 4 7 7 8 9 8 11 11 8 9 9 10 7 3 10 4 -4 5 2 -1 4 2 4 2 -6 2 10 9 14 10 -3 -1 6 5 5 5 5 8 9 8
7 8 9 9 9 10 10 8 7 5 4 4 3 3 5 5 6 8 11 20 16 7 15 17 10 7 6 7 7 5 5 6 7 6 3 3 4 8 11 8 7 7 6 6 6 6 7 6 5 6 6 6 8 6 7 12 9 9 10 8 7 3 5 5 -5 1 20 27 21 6 -3 1 -3 -8 -4 2 9 10 3 1 6 8 5 3 4 6 7 9
5 6 9 9 8 8 11 11 11 10 9 7 5 3 4 3 3 5 4 12 16 9 12 19 16 11 7 6 10 10 6 4 7 7 5 6 4 4 8 8 8 8 9 8 7 7 6 6 6 6 7 5 7 8 6 10 8 7 12 9 5 5 5 7 -9 -18 -0 13 20 22 8 0 5 4 2 4 4 7 14 14 8 6 6 4 3 5 7 10
4 4 7 9 8 6 8 11 12 11 11 11 10 7 6 6 3 4 4 5 9 8 7 14 17 15 11 8 8 11 9 5 6 5 6 10 6 3 5 6 8 7 8 8 7 9 7 6 6 6 8 5 3 8 8 9 8 7 15 13 8 6 5 9 0 -16 -16 -17 -10 14 18 10 15 16 10 11 10 4 9 20 16 3 3 5 3 8 12 9
7 6 8 10 11 9 7 10 12 12 13 11 13 11 8 10 6 5 7 5 5 6 4 8 15 17 14 11 9 10 11 9 6 5 7 10 8 6 4 4 9 9 9 9 6 9 11 9 8 7 9 8 5 6 7 10 11 11 16 16 13 9 5 8 8 -1 -3 -7 -9 -3 -1 3 21 27 13 9 17 13 3 8 13 4 2 6 5 9 10 6
18 18 17 18 19 17 13 10 9 13 17 13 13 14 11 12 10 8 10 7 7 9 6 5 10 15 16 14 12 10 9 10 8 6 5 7 8 8 6 5 9 8 8 10 8 6 8 8 10 9 7 8 9 8 5 4 8 12 13 15 14 12 8 7 7 7 4 3 6 7 -3 -12 5 23 14 2 7 8 -0 1 10 8 0 -0 5 9 7 4
29 29 29 28 29 31 30 25 16 12 13 14 17 16 13 14 12 12 13 9 9 12 9 6 7 11 15 15 15 15 12 9 7 8 7 7 8 8 7 6 4 6 6 7 8 7 5 4 5 8 6 6 7 8 7 2 3 7 7 10 15 17 15 7 7 10 4 0 3 10 7 -12 -9 11 10 3 -1 -5 2 13 13 8 4 5 10 10 7 6
31 32 33 33 34 37 38 41 39 29 21 16 15 18 19 18 14 11 12 13 17 18 13 9 5 5 9 12 13 13 15 12 8 10 10 7 7 6 5 5 1 2 2 2 5 7 7 3 1 4 8 7 3 4 8 6 4 4 4 7 12 18 17 8 9 6 -2 4 8 7 10 -5 -6 15 14 5 5 -1 3 18 19 12 11 13 7 2 5 9
27 26 26 27 28 29 31 37 44 44 41 31 23 23 22 21 20 14 15 25 27 19 9 4 2 1 3 7 11 13 14 14 10 9 11 10 8 5 4 7 8 2 -2 3 7 5 6 8 5 5 7 8 6 4 5 6 5 4 3 7 12 14 14 9 7 1 -5 7 14 8 5 -7 -8 14 19 11 16 12 2 11 24 13 5 12 6 3 10 8
14 13 13 14 13 16 18 24 33 40 46 44 37 33 29 29 28 22 26 34 22 6 5 7 4 4 5 6 12 17 17 20 18 11 11 13 11 7 6 9 10 8 5 7 9 5 6 8 6 5 6 5 6 6 5 3 3 5 2 3 9 10 11 11 9 5 4 9 15 10 0 -4 1 8 14 19 23 19 4 6 24 13 -2 12 12 6 10 7
4 2 2 3 4 6 7 12 27 36 40 42 42 41 38 34 35 35 34 29 17 9 7 7 6 8 10 9 9 13 14 17 19 14 11 14 14 8 5 6 6 7 9 7 6 6 4 4 5 7 8 4 4 6 9 9 5 4 5 3 6 7 6 11 11 7 9 9 10 13 5 4 14 7 5 16 22 25 17 10 25 21 -4 1 10 6 9 6
-0 -1 0 5 6 5 4 12 29 40 41 42 40 39 41 44 50 53 36 13 10 17 11 9 17 15 13 13 10 9 9 11 14 12 9 11 16 14 8 8 8 5 7 5 5 7 4 5 8 10 12 9 6 6 6 11 11 7 7 4 3 8 6 7 11 8 12 15 7 9 11 9 15 17 16 17 13 20 26 14 21 27 1 -11 3 9 9 7
1 3 9 14 10 7 5 11 35 56 56 48 38 37 48 52 43 41 38 24 17 20 16 18 25 17 13 21 25 18 10 13 19 16 10 9 13 19 15 11 10 6 6 5 5 7 5 5 6 5 11 12 7 8 5 3 9 12 11 8 6 11 9 4 7 4 7 18 11 1 7 13 14 18 22 23 13 11 23 18 15 26 16 -4 -5 4 9 9
5 8 17 15 7 10 4 7 48 75 59 39 29 30 40 33 13 13 29 30 23 22 19 17 17 12 9 13 28 43 32 15 18 18 14 12 11 17 18 15 14 9 7 7 5 6 5 4 9 5 6 13 9 8 10 4 5 9 7 12 14 9 9 7 5 3 1 8 13 2 -3 8 15 12 13 20 17 14 22 21 12 17 20 7 -4 -1 5 6
12 12 22 16 8 14 1 10 67 81 47 29 20 20 29 18 7 16 23 20 20 23 17 13 16 19 17 -2 -5 38 51 19 12 18 13 11 11 13 14 13 16 11 5 7 2 2 3 -0 15 15 -4 3 15 9 9 7 3 7 4 6 15 10 8 10 5 7 7 3 8 9 -1 1 9 11 16 20 14 15 22 18 12 12 14 13 6 -1 1 5
15 14 22 14 10 16 1 18 73 67 35 32 17 11 22 12 6 19 29 32 32 30 19 12 14 14 25 13 -22 4 45 24 9 13 6 17 27 19 15 12 14 13 5 6 4 4 4 -9 8 35 11 -7 9 8 4 8 2 4 5 -0 8 13 9 11 8 5 8 6 4 11 13 11 5 1 14 22 14 17 23 16 13 12 10 13 11 0 2 7
14 13 18 12 9 17 9 23 54 38 19 26 13 7 17 14 15 22 35 47 41 35 25 13 18 13 17 23 -18 -22 23 25 18 10 -16 9 39 21 15 15 11 17 10 5 7 6 10 -12 -21 29 44 5 2 9 1 8 7 1 6 4 1 8 6 8 13 8 5 6 3 6 16 24 22 14 14 19 14 13 15 13 14 12 9 13 11 0 1 11
11 9 15 13 8 16 17 22 38 31 22 22 9 6 9 8 18 20 28 48 46 47 39 17 22 18 9 22 -1 -18 6 9 23 20 -29 -5 43 16 5 16 7 14 15 10 11 2 12 3 -40 -6 52 22 -6 11 7 6 13 3 4 10 2 1 5 2 6 12 10 6 3 -2 -6 2 21 25 18 17 17 15 12 10 11 11 12 14 12 1 -8 1
11 8 13 11 3 16 23 18 29 34 29 26 15 11 12 7 10 3 3 21 27 39 51 38 37 27 7 16 10 2 17 9 16 16 -30 -5 49 16 -5 11 5 9 13 9 16 2 6 17 -31 -35 40 42 -8 -4 7 1 10 11 3 8 9 3 6 5 -2 3 11 8 8 2 -15 -9 19 28 21 17 14 12 11 6 4 9 14 14 11 7 -3 -7
8 4 11 10 2 19 26 12 19 26 19 25 26 21 19 15 17 14 7 11 11 16 29 35 51 50 19 8 1 -5 14 22 16 3 -23 0 36 12 -2 9 2 9 14 3 12 9 2 19 -8 -47 4 63 36 3 8 3 -0 11 6 0 10 7 3 8 2 -1 4 4 10 9 -8 -3 18 20 18 21 17 13 8 4 7 10 12 14 10 7 4 -0
6 2 8 8 5 20 25 11 14 19 14 21 25 22 22 17 18 22 17 19 19 15 15 16 37 55 38 21 12 -9 -5 22 20 -4 -5 18 20 0 3 10 -1 4 14 5 8 16 5 11 16 -29 -46 20 53 18 8 10 -5 2 9 -1 5 9 3 6 6 2 3 1 6 9 -0 2 11 12 17 22 21 19 10 6 13 13 9 13 11 -0 -2 7
7 8 8 6 9 17 22 18 11 11 14 17 18 21 24 22 22 23 20 25 28 21 18 15 20 36 41 36 29 7 -3 18 19 -6 -1 26 27 8 3 9 6 1 9 12 7 13 10 -1 16 4 -49 -34 26 25 7 13 4 -3 5 3 1 6 5 6 7 6 3 1 3 6 8 9 3 4 17 20 15 17 14 8 8 9 7 7 3 -4 -3 9
7 13 11 7 10 14 21 24 11 7 14 12 11 17 18 18 24 23 18 24 32 25 18 21 20 22 29 33 32 27 16 9 8 4 5 15 26 24 6 2 11 6 4 14 8 6 14 2 4 17 -15 -37 4 29 11 9 14 4 1 4 3 4 5 5 7 7 5 5 4 -1 3 7 -3 -5 10 21 21 17 14 12 8 7 6 -1 -4 2 6 11
7 14 16 8 6 13 23 22 9 9 13 6 8 13 11 14 21 21 16 17 27 29 24 28 33 30 28 26 21 25 30 15 -3 1 15 17 19 22 9 0 7 9 6 12 12 6 10 9 5 14 6 -23 -18 10 10 3 9 8 4 5 2 3 6 6 7 6 4 7 6 0 -2 0 3 3 1 10 21 16 11 12 8 4 5 2 2 8 9 11
8 11 17 10 1 9 21 18 13 18 13 5 10 10 6 12 16 17 18 17 19 24 25 31 35 34 36 37 22 11 24 31 8 -5 10 24 23 13 7 8 7 4 6 8 11 12 8 8 9 10 13 -1 -16 -6 7 7 7 5 5 9 7 5 4 3 7 8 5 5 6 5 2 -0 8 10 -1 4 20 21 17 13 5 3 8 7 6 9 11 12
11 10 18 15 1 4 16 17 20 24 11 3 8 8 8 12 13 14 15 18 19 15 23 37 33 20 26 40 35 17 14 25 21 8 8 23 32 13 -3 14 20 5 4 8 9 12 8 5 8 10 13 13 3 -3 -2 4 9 5 2 6 9 12 11 5 4 5 6 8 6 6 6 3 7 9 -0 0 8 10 8 6 5 10 10 5 5 8 11 9
13 12 19 22 10 7 16 17 21 24 14 6 5 3 8 9 8 14 14 15 21 15 22 43 35 11 12 27 36 30 19 20 23 15 3 12 31 18 -6 9 24 7 0 8 9 7 3 4 11 13 10 8 8 8 -0 -3 6 8 4 0 -3 4 14 15 11 5 5 8 6 8 9 4 5 10 2 -4 0 6 7 6 9 12 9 10 15 13 10 6
13 17 20 23 18 13 17 18 20 22 14 10 9 2 6 8 5 12 14 12 19 18 21 42 40 15 6 17 32 37 26 20 26 23 7 4 18 18 8 14 17 5 1 6 7 4 4 10 13 10 10 7 4 9 6 -3 -1 5 8 5 -3 -7 -3 3 8 6 6 8 6 8 12 7 9 13 4 -2 4 11 14 15 16 11 7 11 15 13 11 8
14 24 19 16 18 14 17 21 20 18 12 9 12 6 3 8 7 9 13 13 17 20 20 33 39 22 4 1 16 37 37 25 24 24 14 12 15 11 16 25 16 4 6 6 2 3 5 10 10 5 9 10 5 8 10 3 1 5 7 8 6 2 -5 -5 1 1 3 9 7 7 11 10 11 12 4 3 9 9 8 13 16 14 13 13 10 10 13 11
Height
5888 5887 5887 5886 5886 5885 5884 5884 5883 5883 5883 5882 5882 5882 5881 5881 5881 5881 5881 5880 5880 5880 5880 5879 5879 5879 5878 5878 5877 5877 5877 5878 5878 5878 5878 5879 5880 5880 5881 5882 5882 5883 5884 5885 5885 5886 5888 5889 5890 5890 5891 5892 5892 5893 5894 5894 5894 5895 5896 5896 5897 5897 5895 5896 5899 5899 5898 5899 5898 5899 5899 5899 5900 5901 5901 5902 5902 5902 5902 5902 5902 5902 5902 5902 5903 5903 5903 5903
5886 5886 5885 5885 5884 5883 5883 5882 5882 5881 5881 5881 5880 5880 5879 5879 5879 5879 5879 5879 5879 5879 5878 5878 5878 5878 5878 5877 5877 5876 5876 5876 5877 5877 5878 5878 5879 5879 5880 5881 5881 5882 5883 5883 5884 5884 5886 5887 5888 5889 5890 5891 5891 5892 5893 5893 5894 5894 5896 5896 5896 5896 5896 5896 5898 5899 5899 5899 5898 5899 5899 5900 5900 5900 5901 5902 5902 5902 5902 5902 5902 5902 5902 5902 5902 5903 5903 5903
5885 5884 5883 5883 5882 5882 5881 5880 5880 5879 5879 5879 5878 5878 5877 5877 5877 5877 5878 5878 5878 5877 5877 5877 5877 5877 5876 5876 5876 5875 5875 5875 5876 5877 5877 5876 5877 5878 5879 5879 5880 5881 5881 5882 5882 5883 5884 5885 5886 5887 5888 5889 5890 5891 5892 5892 5893 5894 5895 5895 5896 5896 5896 5896 5897 5898 5898 5899 5899 5899 5899 5900 5900 5901 5901 5901 5901 5902 5902 5902 5902 5902 5902 5902 5902 5903 5903 5903
5883 5882 5882 5881 5880 5880 5879 5879 5878 5877 5877 5877 5876 5876 5875 5875 5875 5875 5876 5876 5876 5875 5875 5875 5875 5875 5875 5875 5875 5874 5874 5874 5874 5875 5875 5875 5876 5877 5877 5877 5878 5879 5880 5881 5881 5882 5883 5884 5885 5886 5887 5888 5889 5890 5891 5892 5892 5893 5894 5895 5895 5894 5895 5896 5896 5897 5898 5899 5899 5899 5899 5900 5900 5900 5901 5901 5901 5901 5901 5901 5901 5901 5902 5902 5902 5902 5903 5903
5881 5880 5880 5879 5878 5878 5877 5877 5876 5875 5875 5875 5874 5874 5873 5873 5873 5873 5874 5874 5874 5874 5873 5873 5873 5874 5874 5874 5874 5873 5873 5873 5873 5873 5874 5874 5875 5875 5876 5876 5877 5878 5879 5880 5880 5881 5882 5883 5884 5885 5886 5888 5889 5890 5890 5891 5891 5892 5893 5894 5894 5894 5895 5894 5895 5897 5898 5898 5899 5899 5899 5899 5900 5900 5901 5901 5901 5901 5901 5901 5901 5901 5901 5901 5901 5902 5903 5903
5878 5878 5877 5877 5876 5876 5875 5874 5874 5873 5873 5872 5872 5871 5871 5871 5870 5871 5871 5872 5872 5871 5871 5871 5872 5872 5872 5872 5872 5872 5872 5872 5872 5871 5872 5873 5873 5874 5874 5875 5876 5877 5878 5879 5879 5880 5881 5882 5883 5884 5886 5887 5888 5889 5890 5890 5891 5891 5892 5893 5894 5895 5895 5893 5894 5896 5897 5898 5899 5899 5899 5899 5900 5900 5901 5901 5901 5901 5900 5900 5900 5900 5900 5900 5901 5902 5902 5902
5876 5875 5875 5875 5874 5873 5873 5872 5871 5871 5871 5870 5869 5869 5868 5868 5868 5869 5869 5869 5869 5869 5869 5869 5869 5870 5870 5870 5871 5870 5870 5871 5870 5870 5870 5871 5872 5872 5872 5873 5874 5875 5877 5877 5878 5879 5879 5881 5882 5883 5884 5886 5887 5888 5888 5889 5890 5891 5892 5893 5893 5894 5895 5893 5894 5895 5896 5897 5898 5898 5899 5899 5900 5900 5900 5901 5901 5901 5900 5900 5900 5899 5900 5900 5900 5901 5901 5901
5874 5873 5873 5872 5872 5871 5870 5870 5869 5869 5868 5868 5867 5867 5866 5866 5866 5866 5866 5867 5867 5867 5867 5867 5867 5868 5868 5868 5869 5869 5868 5869 5869 5868 5869 5869 5870 5871 5871 5871 5872 5874 5875 5876 5876 5877 5878 5879 5880 5881 5883 5884 5886 5886 5886 5887 5888 5890 5891 5892 5893 5893 5894 5894 5894 5895 5896 5896 5897 5898 5899 5899 5899 5900 5900 5900 5900 5900 5900 5900 5899 5899 5899 5900 5900 5900 5900 5900
5871 5870 5870 5869 5869 5868 5868 5867 5867 5866 5866 5866 5865 5864 5864 5863 5863 5863 5863 5864 5864 5864 5864 5864 5865 5865 5865 5866 5867 5866 5867 5867 5867 5867 5868 5868 5868 5869 5870 5870 5870 5871 5873 5874 5875 5875 5876 5878 5879 5880 5881 5882 5883 5884 5885 5886 5887 5888 5889 5890 5891 5892 5893 5893 5894 5895 5895 5896 5897 5897 5898 5899 5899 5899 5899 5899 5900 5900 5900 5900 5899 5899 5899 5899 5899 5899 5899 5899
5868 5867 5867 5867 5866 5866 5865 5864 5864 5864 5864 5863 5863 5862 5862 5861 5861 5860 5861 5861 5862 5861 5861 5862 5862 5863 5863 5864 5864 5864 5865 5865 5865 5866 5866 5866 5867 5867 5868 5868 5869 5869 5870 5872 5873 5874 5875 5876 5877 5878 5879 5880 5881 5883 5883 5885 5886 5886 5887 5888 5890 5891 5892 5893 5894 5894 5895 5895 5896 5897 5898 5898 5898 5899 5899 5899 5899 5899 5899 5899 5899 5899 5899 5899 5899 5898 5898 5898
5864 5864 5863 5863 5863 5863 5862 5861 5861 5861 5861 5861 5860 5859 5859 5859 5858 5858 5858 5859 5859 5858 5858 5859 5860 5860 5860 5861 5862 5862 5863 5863 5863 5864 5864 5865 5865 5865 5866 5867 5867 5868 5868 5870 5871 5872 5873 5874 5875 5876 5877 5878 5880 5881 5882 5884 5884 5885 5886 5886 5888 5890 5891 5892 5893 5894 5894 5895 5895 5896 5897 5898 5898 5898 5899 5898 5899 5899 5899 5899 5898 5898 5898 5898 5898 5897 5897 5897
5860 5860 5859 5859 5859 5859 5858 5858 5858 5857 5858 5858 5857 5857 5856 5856 5856 5855 5855 5856 5856 5856 5856 5856 5857 5857 5858 5859 5859 5859 5861 5861 5861 5862 5862 5863 5863 5863 5864 5865 5865 5866 5867 5868 5869 5870 5871 5872 5873 5874 5876 5877 5879 5880 5881 5882 5883 5883 5884 5885 5887 5889 5890 5891 5892 5893 5893 5894 5895 5896 5897 5897 5897 5898 5898 5898 5898 5898 5898 5898 5898 5898 5898 5897 5897 5897 5896 5896
5856 5855 5855 5855 5855 5855 5854 5854 5854 5854 5854 5854 5854 5854 5853 5853 5853 5853 5853 5853 5853 5853 5853 5853 5854 5854 5855 5856 5855 5856 5859 5858 5859 5859 5860 5860 5861 5862 5862 5863 5863 5864 5865 5865 5866 5867 5868 5870 5871 5873 5874 5875 5877 5877 5878 5880 5881 5882 5883 5883 5885 5887 5889 5891 5891 5892 5892 5893 5894 5895 5896 5896 5897 5897 5897 5897 5897 5898 5898 5898 5897 5897 5897 5897 5897 5897 5896 5896
5852 5851 5851 5851 5851 5850 5850 5850 5849 5849 5850 5850 5851 5851 5850 5850 5850 5850 5850 5850 5850 5850 5850 5850 5850 5851 5853 5853 5851 5854 5856 5856 5856 5857 5857 5858 5859 5860 5860 5861 5861 5862 5863 5863 5864 5865 5866 5868 5869 5871 5872 5873 5875 5875 5876 5879 5879 5881 5882 5882 5883 5885 5888 5889 5890 5890 5891 5892 5893 5894 5895 5896 5896 5896 5896 5897 5896 5897 5897 5897 5897 5896 5896 5896 5896 5896 5895 5895
5847 5846 5846 5846 5846 5846 5845 5845 5845 5845 5845 5846 5846 5846 5846 5846 5846 5846 5846 5847 5847 5847 5847 5847 5847 5848 5850 5849 5848 5851 5852 5852 5853 5854 5855 5855 5856 5857 5858 5859 5859 5860 5861 5861 5862 5863 5864 5865 5867 5869 5870 5872 5873 5872 5875 5877 5877 5879 5880 5881 5882 5885 5887 5888 5888 5889 5890 5891 5892 5893 5895 5895 5896 5895 5895 5895 5896 5896 5896 5896 5897 5896 5896 5896 5895 5895 5894 5893
5842 5841 5841 5841 5841 5841 5840 5840 5840 5840 5840 5840 5841 5841 5841 5842 5842 5842 5842 5843 5843 5843 5844 5844 5844 5845 5846 5846 5846 5847 5848 5849 5849 5851 5852 5853 5853 5854 5855 5857 5857 5858 5858 5859 5860 5861 5862 5863 5864 5866 5868 5869 5870 5871 5874 5875 5875 5877 5878 5880 5882 5884 5886 5887 5887 5888 5889 5890 5891 5892 5893 5894 5895 5895 5894 5894 5895 5895 5895 5895 5896 5896 5895 5895 5895 5895 5894 5893
5837 5836 5835 5835 5835 5835 5835 5835 5835 5835 5834 5835 5835 5836 5836 5837 5837 5838 5838 5839 5839 5840 5840 5840 5841 5841 5843 5843 5842 5842 5845 5846 5845 5848 5850 5849 5850 5851 5853 5854 5855 5855 5856 5857 5858 5859 5860 5860 5862 5863 5865 5867 5868 5869 5872 5873 5874 5876 5877 5879 5881 5882 5885 5886 5885 5886 5887 5888 5890 5890 5891 5892 5893 5893 5893 5893 5893 5894 5894 5894 5895 5895 5895 5895 5894 5894 5894 5893
5833 5831 5830 5829 5829 5829 5829 5829 5829 5829 5829 5829 5829 5830 5831 5831 5832 5833 5833 5834 5835 5835 5835 5836 5838 5838 5838 5839 5839 5839 5841 5842 5843 5845 5845 5846 5847 5848 5850 5851 5852 5852 5853 5854 5856 5856 5857 5858 5859 5860 5861 5864 5865 5866 5869 5871 5873 5874 5876 5878 5880 5881 5883 5884 5884 5885 5886 5887 5888 5888 5890 5891 5891 5891 5891 5891 5892 5893 5894 5894 5894 5894 5893 5894 5894 5894 5894 5893
5828 5826 5825 5824 5823 5823 5823 5823 5823 5823 5823 5823 5823 5824 5825 5825 5825 5827 5828 5829 5829 5830 5830 5832 5834 5833 5834 5836 5836 5835 5837 5839 5840 5840 5841 5843 5844 5845 5846 5847 5849 5850 5851 5852 5854 5854 5855 5855 5856 5858 5859 5861 5863 5865 5868 5870 5871 5873 5874 5876 5878 5880 5882 5883 5884 5884 5884 5885 5885 5886 5889 5889 5890 5890 5890 5890 5891 5892 5893 5893 5893 5893 5893 5893 5893 5893 5893 5893
5823 5821 5820 5819 5818 5817 5817 5817 5817 5817 5818 5817 5817 5817 5818 5819 5819 5820 5823 5823 5823 5824 5825 5827 5829 5829 5829 5832 5832 5832 5834 5834 5835 5836 5837 5839 5840 5841 5842 5844 5846 5847 5849 5850 5851 5852 5852 5853 5855 5857 5858 5859 5861 5864 5866 5867 5869 5871 5872 5874 5876 5878 5880 5881 5882 5882 5882 5883 5884 5885 5887 5888 5888 5889 5888 5889 5889 5890 5891 5892 5892 5892 5892 5892 5892 5892 5891 5892
5818 5816 5815 5813 5812 5812 5811 5810 5810 5811 5811 5812 5812 5811 5811 5812 5812 5813 5816 5817 5817 5818 5819 5820 5823 5825 5825 5826 5828 5829 5829 5829 5830 5832 5833 5835 5836 5837 5838 5841 5843 5845 5847 5848 5848 5848 5849 5851 5854 5855 5855 5856 5858 5860 5862 5864 5866 5868 5869 5872 5874 5875 5878 5879 5880 5880 5880 5881 5882 5884 5885 5886 5887 5888 5888 5887 5887 5888 5889 5890 5891 5890 5890 5891 5891 5890 5890 5892
5812 5810 5809 5807 5806 5806 5804 5803 5804 5804 5804 5805 5806 5805 5805 5805 5805 5806 5808 5812 5812 5811 5813 5815 5816 5820 5821 5820 5823 5825 5824 5824 5826 5828 5829 5831 5832 5834 5836 5838 5839 5842 5844 5843 5844 5845 5847 5851 5852 5852 5852 5853 5854 5856 5858 5860 5862 5864 5866 5869 5871 5873 5876 5878 5879 5878 5878 5879 5881 5882 5883 5884 5885 5886 5887 5886 5886 5887 5888 5889 5889 5889 5889 5889 5889 5888 5889 5892
5805 5803 5802 5801 5800 5799 5799 5797 5796 5797 5797 5798 5798 5799 5799 5798 5798 5799 5800 5804 5807 5805 5806 5809 5810 5813 5814 5814 5818 5820 5818 5820 5822 5823 5825 5827 5828 5830 5832 5833 5836 5838 5838 5839 5842 5844 5846 5849 5848 5848 5849 5850 5851 5853 5854 5856 5857 5859 5862 5865 5868 5871 5873 5876 5878 5877 5876 5878 5880 5881 5881 5882 5884 5885 5885 5884 5884 5886 5886 5887 5888 5888 5889 5888 5887 5888 5889 5891
5798 5795 5795 5794 5793 5791 5792 5791 5789 5789 5790 5790 5790 5791 5792 5791 5791 5792 5793 5795 5800 5801 5800 5802 5804 5806 5808 5809 5811 5813 5814 5816 5817 5817 5821 5823 5824 5826 5827 5830 5832 5833 5834 5837 5839 5841 5844 5844 5843 5843 5845 5847 5848 5849 5851 5853 5854 5856 5859 5862 5865 5868 5870 5873 5877 5877 5876 5876 5878 5878 5878 5878 5880 5882 5883 5882 5883 5884 5884 5885 5887 5886 5887 5887 5886 5887 5889 5890
5790 5787 5786 5786 5785 5783 5783 5784 5782 5781 5781 5781 5782 5783 5784 5784 5784 5785 5786 5786 5791 5796 5794 5794 5797 5799 5801 5802 5804 5808 5810 5810 5811 5812 5816 5819 5820 5822 5823 5825 5827 5827 5831 5834 5835 5837 5840 5839 5839 5841 5843 5844 5845 5846 5848 5850 5851 5853 5856 5858 5861 5864 5866 5868 5873 5875 5875 5873 5873 5874 5874 5874 5877 5880 5880 5880 5882 5883 5882 5883 5885 5885 5885 5885 5884 5885 5886 5887
5782 5778 5777 5777 5776 5775 5774 5774 5773 5773 5772 5772 5773 5775 5775 5775 5776 5777 5779 5779 5782 5787 5788 5788 5789 5791 5793 5795 5799 5801 5801 5803 5807 5807 5810 5814 5815 5817 5818 5820 5822 5824 5828 5830 5830 5832 5835 5835 5836 5839 5840 5841 5842 5843 5846 5847 5848 5850 5853 5856 5858 5859 5861 5863 5867 5869 5869 5869 5870 5871 5871 5873 5876 5877 5877 5879 5880 5881 5881 5880 5881 5883 5883 5884 5884 5883 5883 5885
5771 5768 5766 5765 5765 5766 5764 5764 5764 5764 5763 5762 5763 5765 5765 5766 5768 5769 5771 5772 5773 5776 5780 5782 5783 5783 5785 5788 5792 5793 5793 5797 5802 5801 5804 5809 5810 5811 5813 5815 5818 5821 5824 5825 5824 5827 5832 5832 5833 5836 5836 5837 5838 5841 5844 5845 5845 5848 5851 5853 5854 5855 5857 5859 5862 5863 5863 5865 5867 5868 5870 5871 5872 5873 5875 5877 5877 5880 5880 5877 5878 5881 5882 5882 5883 5883 5883 5883
5759 5756 5753 5750 5751 5752 5751 5751 5753 5752 5753 5753 5753 5754 5756 5757 5759 5761 5762 5763 5763 5766 5770 5774 5776 5777 5777 5780 5784 5786 5787 5790 5795 5797 5799 5803 5804 5806 5808 5810 5814 5818 5820 5820 5821 5826 5830 5829 5830 5833 5833 5834 5837 5840 5842 5842 5843 5846 5848 5849 5851 5853 5855 5857 5859 5859 5860 5861 5862 5864 5868 5868 5868 5870 5872 5873 5875 5876 5875 5873 5876 5879 5880 5881 5882 5882 5882 5881
5747 5745 5741 5738 5737 5736 5735 5736 5738 5739 5740 5742 5742 5743 5745 5746 5749 5751 5751 5753 5755 5756 5760 5764 5767 5769 5770 5771 5775 5778 5781 5783 5787 5790 5791 5795 5798 5800 5803 5806 5810 5813 5814 5814 5817 5822 5824 5824 5826 5828 5829 5831 5836 5838 5837 5838 5841 5844 5844 5846 5848 5849 5851 5854 5854 5856 5858 5856 5857 5861 5864 5864 5864 5867 5869 5869 5871 5872 5871 5872 5875 5877 5878 5880 5880 5880 5881 5880
5737 5734 5731 5727 5725 5722 5721 5721 5721 5722 5724 5727 5730 5731 5733 5735 5738 5740 5739 5745 5749 5747 5750 5754 5755 5758 5762 5764 5766 5770 5773 5775 5778 5782 5784 5788 5792 5794 5797 5801 5803 5806 5808 5808 5811 5816 5818 5819 5821 5822 5824 5829 5832 5832 5831 5834 5838 5840 5840 5841 5844 5846 5848 5850 5851 5854 5854 5849 5852 5858 5860 5860 5861 5864 5866 5866 5868 5869 5869 5871 5873 5874 5875 5877 5879 5879 5879 5879
5727 5724 5721 5718 5715 5712 5710 5708 5706 5706 5707 5710 5713 5716 5721 5722 5725 5727 5729 5736 5739 5736 5740 5741 5741 5748 5753 5755 5758 5761 5765 5767 5770 5773 5776 5780 5783 5786 5788 5791 5795 5797 5800 5801 5805 5810 5812 5813 5815 5817 5822 5826 5825 5826 5827 5831 5834 5835 5835 5838 5841 5843 5845 5846 5847 5849 5846 5844 5850 5855 5857 5858 5857 5860 5864 5865 5866 5867 5867 5868 5870 5872 5873 5875 5877 5877 5877 5879
5720 5717 5714 5711 5707 5704 5701 5698 5695 5693 5693 5694 5696 5700 5705 5707 5711 5716 5720 5725 5724 5722 5728 5728 5730 5738 5743 5747 5751 5753 5757 5760 5763 5766 5769 5772 5776 5779 5782 5786 5790 5792 5795 5798 5802 5807 5808 5810 5813 5815 5820 5822 5820 5822 5824 5827 5829 5830 5832 5835 5838 5839 5840 5841 5842 5843 5843 5844 5849 5853 5854 5855 5854 5858 5862 5863 5865 5866 5865 5865 5868 5872 5872 5872 5875 5875 5875 5877
5716 5712 5708 5704 5700 5697 5693 5690 5686 5683 5680 5680 5681 5684 5688 5691 5698 5704 5709 5710 5704 5707 5716 5717 5721 5730 5735 5741 5745 5747 5751 5754 5756 5759 5761 5765 5769 5773 5777 5782 5786 5788 5793 5796 5798 5802 5805 5806 5807 5810 5815 5816 5816 5818 5820 5822 5825 5826 5829 5832 5834 5836 5836 5838 5839 5841 5843 5845 5848 5851 5851 5851 5853 5856 5858 5860 5863 5864 5864 5864 5866 5870 5870 5869 5872 5873 5874 5876
5711 5708 5704 5700 5696 5692 5687 5682 5678 5674 5670 5668 5669 5671 5673 5677 5685 5692 5695 5690 5685 5694 5704 5707 5714 5722 5726 5732 5736 5739 5742 5745 5749 5751 5753 5757 5760 5764 5768 5773 5778 5782 5787 5790 5792 5796 5798 5798 5801 5806 5811 5812 5812 5815 5818 5821 5823 5824 5827 5830 5832 5834 5835 5837 5839 5840 5842 5844 5846 5847 5848 5849 5851 5853 5855 5858 5860 5861 5863 5863 5864 5868 5868 5866 5868 5871 5873 5875
5707 5703 5699 5694 5690 5685 5680 5675 5669 5665 5661 5658 5657 5659 5662 5666 5674 5679 5675 5669 5671 5682 5691 5699 5708 5713 5716 5722 5727 5730 5733 5736 5740 5743 5745 5748 5752 5757 5762 5766 5771 5775 5779 5783 5786 5790 5792 5795 5800 5804 5809 5810 5810 5813 5816 5818 5819 5822 5825 5826 5829 5833 5835 5836 5838 5839 5841 5843 5844 5844 5845 5848 5849 5850 5852 5855 5857 5858 5860 5862 5862 5864 5865 5863 5865 5869 5871 5873
5703 5699 5693 5687 5683 5679 5674 5668 5661 5654 5651 5649 5648 5649 5653 5658 5665 5663 5654 5654 5661 5670 5681 5692 5698 5701 5707 5713 5718 5721 5725 5729 5733 5735 5738 5741 5746 5751 5755 5760 5765 5768 5772 5777 5781 5785 5787 5793 5797 5798 5802 5806 5806 5809 5812 5814 5816 5819 5820 5822 5827 5832 5833 5833 5835 5837 5838 5840 5841 5842 5843 5845 5846 5848 5850 5852 5854 5855 5857 5859 5860 5860 5863 5862 5862 5866 5870 5872
5698 5695 5689 5683 5679 5674 5668 5661 5652 5644 5642 5641 5640 5642 5645 5649 5651 5645 5638 5641 5649 5657 5670 5680 5684 5688 5695 5702 5711 5714 5715 5720 5725 5727 5731 5735 5739 5743 5747 5753 5757 5760 5767 5772 5776 5779 5782 5788 5791 5791 5796 5800 5802 5805 5807 5809 5813 5814 5816 5822 5826 5827 5827 5829 5832 5833 5835 5837 5839 5841 5842 5843 5844 5846 5847 5849 5851 5852 5854 5856 5857 5858 5860 5862 5861 5864 5869 5870
5693 5689 5684 5679 5674 5668 5662 5656 5645 5637 5635 5635 5635 5637 5638 5638 5636 5631 5627 5630 5638 5647 5659 5667 5672 5676 5681 5689 5700 5703 5703 5710 5716 5718 5724 5728 5730 5734 5739 5741 5744 5750 5758 5763 5766 5771 5776 5782 5785 5786 5790 5794 5797 5801 5801 5802 5807 5810 5813 5818 5819 5820 5822 5824 5827 5829 5832 5835 5837 5839 5841 5841 5842 5844 5846 5846 5847 5849 5850 5853 5854 5855 5857 5860 5862 5863 5866 5868
5687 5682 5678 5673 5668 5663 5657 5650 5641 5634 5633 5632 5632 5632 5630 5628 5627 5625 5624 5627 5635 5641 5647 5655 5661 5665 5671 5676 5681 5686 5691 5698 5703 5708 5718 5723 5720 5723 5728 5730 5734 5743 5749 5752 5758 5767 5772 5777 5781 5782 5783 5787 5791 5793 5793 5795 5801 5805 5808 5810 5812 5815 5819 5821 5824 5828 5830 5833 5835 5838 5839 5840 5842 5843 5843 5844 5846 5847 5848 5849 5851 5853 5854 5858 5861 5862 5862 5865
5683 5678 5673 5669 5664 5658 5653 5647 5640 5635 5633 5631 5630 5629 5626 5625 5624 5623 5623 5625 5629 5632 5636 5644 5650 5655 5661 5663 5663 5669 5676 5684 5692 5698 5707 5712 5710 5712 5718 5721 5728 5736 5741 5746 5754 5762 5763 5769 5777 5777 5775 5779 5784 5787 5790 5793 5796 5801 5802 5803 5806 5811 5814 5817 5821 5825 5827 5830 5834 5836 5839 5840 5840 5839 5840 5842 5844 5845 5846 5847 5848 5850 5853 5856 5859 5860 5860 5863
5680 5675 5669 5664 5660 5655 5650 5645 5639 5635 5632 5630 5629 5627 5624 5623 5623 5622 5621 5620 5622 5624 5626 5632 5639 5645 5650 5653 5654 5656 5660 5671 5683 5688 5693 5699 5698 5700 5705 5712 5721 5729 5736 5743 5749 5755 5756 5762 5772 5770 5766 5773 5781 5785 5789 5790 5792 5797 5800 5802 5804 5808 5812 5814 5816 5820 5823 5827 5830 5833 5838 5839 5835 5835 5839 5840 5841 5843 5843 5845 5847 5848 5851 5854 5856 5858 5858 5861
5677 5672 5666 5661 5658 5653 5648 5643 5638 5634 5632 5629 5627 5624 5622 5621 5620 5619 5618 5617 5617 5618 5619 5623 5629 5635 5639 5644 5647 5647 5650 5660 5670 5676 5683 5686 5685 5689 5698 5706 5713 5720 5729 5736 5741 5747 5749 5754 5764 5765 5762 5770 5778 5781 5784 5786 5789 5793 5797 5799 5802 5806 5811 5813 5815 5818 5821 5823 5827 5830 5834 5835 5832 5834 5837 5837 5838 5840 5841 5843 5845 5847 5849 5852 5854 5856 5857 5859
5673 5668 5664 5659 5655 5650 5645 5641 5637 5633 5630 5627 5624 5622 5619 5618 5617 5616 5615 5614 5613 5614 5614 5616 5619 5624 5630 5634 5637 5640 5644 5651 5658 5666 5673 5674 5674 5683 5693 5699 5706 5713 5720 5727 5732 5738 5741 5747 5756 5760 5761 5766 5771 5775 5778 5781 5784 5785 5788 5793 5797 5801 5807 5811 5814 5816 5818 5821 5824 5826 5830 5831 5830 5832 5834 5834 5835 5838 5839 5841 5844 5845 5848 5850 5852 5856 5857 5858
5669 5664 5660 5656 5651 5646 5642 5638 5635 5631 5627 5624 5621 5619 5616 5614 5612 5612 5611 5609 5609 5609 5609 5610 5611 5616 5620 5624 5629 5634 5637 5643 5652 5658 5662 5663 5666 5674 5684 5691 5697 5703 5709 5716 5720 5725 5731 5739 5748 5754 5757 5760 5764 5767 5769 5773 5777 5778 5782 5787 5792 5798 5803 5806 5810 5812 5814 5819 5821 5824 5827 5828 5828 5831 5831 5832 5834 5836 5838 5841 5843 5844 5846 5848 5851 5853 5853 5854
5665 5660 5655 5651 5647 5642 5638 5634 5631 5628 5625 5622 5618 5616 5613 5610 5607 5607 5606 5604 5604 5605 5605 5605 5606 5610 5613 5616 5621 5627 5633 5640 5645 5647 5651 5655 5660 5668 5676 5682 5687 5693 5701 5709 5713 5717 5724 5731 5737 5744 5751 5755 5758 5760 5763 5768 5772 5774 5778 5782 5787 5794 5798 5801 5805 5807 5810 5815 5818 5821 5824 5825 5826 5829 5829 5829 5832 5834 5837 5840 5841 5842 5844 5846 5847 5847 5849 5853
5661 5657 5652 5648 5643 5639 5635 5631 5628 5625 5623 5620 5616 5613 5611 5607 5604 5602 5601 5600 5599 5600 5600 5599 5601 5604 5607 5610 5614 5620 5628 5636 5639 5641 5644 5648 5652 5658 5665 5673 5680 5688 5698 5706 5709 5713 5719 5724 5728 5736 5745 5751 5753 5756 5760 5763 5767 5771 5775 5777 5782 5789 5794 5797 5800 5803 5806 5811 5814 5818 5821 5821 5823 5827 5828 5828 5830 5833 5835 5837 5838 5840 5842 5843 5843 5845 5849 5854
5657 5653 5649 5645 5640 5636 5632 5629 5626 5623 5620 5616 5613 5610 5608 5605 5602 5600 5598 5596 5596 5596 5596 5595 5596 5598 5601 5605 5609 5613 5620 5628 5633 5633 5635 5637 5641 5647 5657 5667 5675 5683 5692 5698 5701 5707 5713 5718 5723 5731 5738 5742 5745 5748 5752 5756 5761 5767 5771 5773 5777 5784 5789 5791 5795 5799 5803 5806 5811 5814 5816 5817 5820 5824 5826 5826 5827 5829 5832 5835 5836 5837 5839 5840 5842 5846 5850 5852
5653 5649 5645 5641 5637 5634 5629 5626 5622 5619 5616 5613 5611 5608 5605 5603 5600 5598 5596 5594 5593 5593 5592 5591 5591 5593 5596 5600 5604 5608 5613 5620 5624 5623 5624 5629 5635 5643 5654 5662 5667 5674 5681 5686 5692 5698 5705 5712 5720 5727 5732 5735 5737 5741 5747 5751 5755 5760 5765 5769 5773 5778 5783 5786 5791 5797 5800 5803 5808 5811 5813 5816 5819 5823 5824 5825 5826 5828 5830 5832 5833 5834 5837 5840 5842 5845 5848 5851
5650 5645 5641 5636 5632 5629 5626 5622 5618 5615 5613 5611 5608 5606 5603 5601 5599 5596 5595 5593 5591 5590 5589 5588 5589 5591 5593 5595 5599 5604 5608 5611 5614 5616 5620 5627 5632 5639 5648 5651 5655 5662 5670 5676 5684 5692 5699 5708 5714 5719 5725 5730 5733 5736 5741 5744 5748 5754 5760 5765 5769 5773 5778 5782 5788 5793 5795 5799 5804 5806 5809 5813 5817 5821 5822 5823 5823 5825 5826 5827 5829 5831 5834 5837 5838 5841 5845 5848
5647 5642 5638 5633 5628 5624 5621 5618 5614 5612 5610 5608 5606 5604 5601 5599 5597 5595 5593 5591 5589 5588 5586 5586 5587 5589 5591 5593 5595 5599 5602 5603 5606 5610 5617 5622 5625 5630 5636 5638 5643 5654 5664 5671 5680 5689 5696 5701 5704 5708 5714 5720 5726 5731 5735 5738 5743 5749 5753 5758 5763 5768 5773 5777 5783 5788 5791 5796 5800 5801 5804 5809 5813 5816 5818 5818 5819 5820 5823 5824 5826 5828 5831 5832 5834 5838 5841 5843
5643 5638 5634 5630 5626 5622 5619 5615 5612 5609 5607 5605 5604 5602 5599 5598 5596 5593 5592 5590 5588 5587 5585 5584 5585 5586 5588 5590 5592 5594 5597 5599 5603 5607 5612 5616 5619 5625 5630 5633 5640 5651 5660 5667 5676 5684 5688 5690 5696 5703 5708 5714 5721 5726 5731 5735 5737 5741 5747 5753 5758 5762 5766 5771 5776 5781 5786 5790 5793 5796 5799 5803 5807 5811 5813 5816 5819 5820 5822 5824 5826 5828 5830 5831 5833 5835 5837 5839
5639 5635 5630 5627 5623 5620 5617 5614 5610 5607 5605 5603 5601 5599 5597 5595 5593 5592 5590 5589 5587 5585 5584 5583 5583 5583 5584 5586 5588 5590 5593 5596 5600 5603 5607 5610 5614 5622 5628 5632 5640 5647 5653 5659 5668 5674 5677 5683 5693 5698 5703 5712 5718 5720 5725 5729 5729 5734 5742 5748 5752 5756 5760 5765 5769 5775 5780 5783 5788 5793 5795 5798 5804 5809 5813 5816 5818 5819 5821 5823 5825 5827 5829 5831 5832 5834 5835 5837